TimeEDT,TemperatureF,Dew PointF,Humidity,Sea Level PressureIn,VisibilityMPH,Wind Direction,Wind SpeedMPH,Gust SpeedMPH,PrecipitationIn,Events,Conditions,WindDirDegrees,DateUTC
12:53 AM,64.9,55.9,73,29.95,10.0,Calm,Calm,-,N/A,,Clear,0,2013-03-22 04:53:00
1:53 AM,63.0,55.9,78,29.94,10.0,Calm,Calm,-,N/A,,Partly Cloudy,0,2013-03-22 05:53:00
2:53 AM,62.1,57.0,84,29.93,10.0,ESE,4.6,-,N/A,,Clear,110,2013-03-22 06:53:00
3:53 AM,63.0,57.0,81,29.91,10.0,ESE,4.6,-,N/A,,Clear,110,2013-03-22 07:53:00
4:53 AM,62.1,57.0,84,29.91,10.0,East,4.6,-,N/A,,Clear,100,2013-03-22 08:53:00
5:53 AM,64.0,57.9,80,29.92,10.0,East,3.5,-,N/A,,Mostly Cloudy,100,2013-03-22 09:53:00
6:53 AM,64.9,60.1,84,29.93,10.0,ESE,4.6,-,N/A,,Mostly Cloudy,110,2013-03-22 10:53:00
7:53 AM,69.1,63.0,81,29.95,10.0,ESE,6.9,-,N/A,,Scattered Clouds,120,2013-03-22 11:53:00
8:53 AM,73.0,64.0,73,29.97,10.0,ESE,8.1,-,N/A,,Mostly Cloudy,110,2013-03-22 12:53:00
9:41 AM,73.4,64.4,73,29.99,10.0,SE,8.1,-,N/A,,Mostly Cloudy,130,2013-03-22 13:41:00
9:53 AM,73.9,64.0,71,30.00,10.0,SE,10.4,-,N/A,,Overcast,140,2013-03-22 13:53:00
10:53 AM,75.0,64.0,69,30.01,10.0,SE,10.4,-,N/A,,Overcast,130,2013-03-22 14:53:00
11:53 AM,75.9,64.9,69,30.01,10.0,ESE,12.7,-,N/A,,Overcast,120,2013-03-22 15:53:00
12:08 PM,77.0,64.4,65,30.01,10.0,SE,13.8,-,N/A,,Overcast,130,2013-03-22 16:08:00
12:49 PM,77.0,66.2,69,30.00,10.0,SE,15.0,-,N/A,,Overcast,130,2013-03-22 16:49:00
12:53 PM,77.0,66.0,69,30.00,10.0,ESE,15.0,19.6,N/A,,Overcast,120,2013-03-22 16:53:00
1:53 PM,77.0,66.9,71,29.97,10.0,SE,12.7,19.6,0.00,,Overcast,130,2013-03-22 17:53:00
2:35 PM,80.6,66.2,61,29.95,10.0,SE,15.0,-,N/A,,Mostly Cloudy,140,2013-03-22 18:35:00
2:45 PM,80.6,66.2,61,29.95,10.0,SE,15.0,21.9,N/A,,Overcast,130,2013-03-22 18:45:00
2:53 PM,79.0,66.9,66,29.95,10.0,ESE,15.0,21.9,N/A,,Mostly Cloudy,120,2013-03-22 18:53:00
3:43 PM,78.8,66.2,65,29.93,10.0,SSE,15.0,21.9,N/A,,Mostly Cloudy,150,2013-03-22 19:43:00
3:53 PM,79.0,66.9,66,29.93,10.0,SSE,13.8,23.0,N/A,,Mostly Cloudy,150,2013-03-22 19:53:00
4:22 PM,77.0,68.0,74,29.92,10.0,SE,13.8,23.0,N/A,,Overcast,140,2013-03-22 20:22:00
4:29 PM,78.8,68.0,69,29.92,10.0,SE,17.3,24.2,N/A,,Overcast,140,2013-03-22 20:29:00
4:53 PM,77.0,68.0,74,29.91,10.0,SE,15.0,23.0,N/A,,Overcast,140,2013-03-22 20:53:00
5:02 PM,75.2,66.2,73,29.91,10.0,SSE,10.4,25.3,N/A,,Overcast,150,2013-03-22 21:02:00
5:24 PM,73.4,69.8,88,29.93,10.0,Variable,5.8,19.6,0.00,Rain,Light Rain,0,2013-03-22 21:24:00
5:53 PM,75.9,70.0,82,29.93,10.0,SE,9.2,-,0.00,,Overcast,130,2013-03-22 21:53:00
6:53 PM,75.9,69.1,79,29.94,10.0,SSE,10.4,-,N/A,,Mostly Cloudy,150,2013-03-22 22:53:00
7:53 PM,75.0,69.1,82,29.95,10.0,SE,8.1,-,N/A,,Mostly Cloudy,140,2013-03-22 23:53:00
8:24 PM,73.4,69.8,88,29.95,10.0,SE,5.8,-,N/A,,Scattered Clouds,130,2013-03-23 00:24:00
8:53 PM,73.9,69.1,85,29.97,10.0,SSE,6.9,-,N/A,,Clear,150,2013-03-23 00:53:00
9:53 PM,73.0,69.1,87,29.99,10.0,SSE,4.6,-,N/A,,Clear,160,2013-03-23 01:53:00
10:53 PM,72.0,70.0,93,30.00,10.0,SE,4.6,-,N/A,,Clear,140,2013-03-23 02:53:00
11:53 PM,72.0,71.1,97,29.99,10.0,SSE,5.8,-,N/A,,Clear,150,2013-03-23 03:53:00